Weather observations for the past three days for
Cedar Rapids Airport
| Date | Time (cdt) | Wind (mph) | Vis. (mi.) | Weather | Sky Cond. | Temperature (ºF) | Relative Humidity | Wind Chill (°F) | Heat Index (°F) | Pressure | Precipitation (in) | ||||||
|---|---|---|---|---|---|---|---|---|---|---|---|---|---|---|---|---|---|
| Air | Dwpt | 6 hour | altimeter (in) | sea level (mb) | 1 hr | 3 hr | 6 hr | ||||||||||
| Max. | Min. | ||||||||||||||||
| 05 | 23:52 | E 7 | 10.00 | Fair | CLR | 73.9 | 70 | 88% | 30.03 | 1016.0 | |||||||
| 05 | 22:52 | E 9 | 10.00 | Fair | CLR | 75 | 70 | 84% | 75 | 30.03 | 1016.0 | ||||||
| 05 | 21:52 | E 7 | 10.00 | Fair | CLR | 75 | 71.1 | 88% | 75 | 30.01 | 1015.4 | ||||||
| 05 | 20:52 | E 8 | 10.00 | Fair | CLR | 75.9 | 72 | 88% | 76 | 29.98 | 1014.6 | ||||||
| 05 | 19:52 | E 8 | 10.00 | Fair | CLR | 78.1 | 71.1 | 79% | 80 | 29.97 | 1014.2 | ||||||
| 05 | 18:52 | E 13 | 10.00 | NULL | NULL | 81 | 73 | 91 | 81 | 77% | 86 | 29.96 | 1014.0 | ||||
| 05 | 17:52 | E 12 | 10.00 | Fair | CLR | 86 | 75.9 | 72% | 96 | 29.95 | 1013.4 | ||||||
| 05 | 16:52 | NE 14 | 10.00 | Fair | CLR | 90 | 75.9 | 63% | 102 | 29.94 | 1013.1 | ||||||
| 05 | 15:52 | N 6 | 10.00 | A Few Clouds | FEW040 | 91 | 73.9 | 57% | 101 | 29.95 | 1013.3 | ||||||
| 05 | 12:52 | NE 6 | 10.00 | Fair | CLR | 87.1 | 75.9 | 88 | 72 | 70% | 98 | 29.98 | 1014.5 | ||||
| 05 | 11:52 | NE 8 | 10.00 | Fair | CLR | 87.1 | 75.9 | 70% | 98 | 29.99 | 1014.7 | ||||||
| 05 | 10:52 | NE 13 | 10.00 | Fair | CLR | 84.9 | 75 | 72% | 93 | 29.99 | 1014.6 | ||||||
| 05 | 09:52 | N 8 | 9.00 | Fair | CLR | 84.9 | 75 | 72% | 93 | 29.97 | 1014.1 | ||||||
| 05 | 08:52 | N 3 | 10.00 | Fair | CLR | 81 | 75 | 82% | 87 | 29.96 | 1013.7 | ||||||
| 05 | 07:52 | N 3 | 10.00 | Fair | CLR | 77 | 73.9 | 90% | 78 | 29.94 | 1013.2 | ||||||
| 05 | 06:52 | Calm | 10.00 | Fair | CLR | 73 | 72 | 77 | 72 | 96% | 29.92 | 1012.5 | |||||
| 05 | 05:52 | Calm | 10.00 | Fog/Mist | CLR | 72 | 72 | 100% | 29.92 | 1012.3 | |||||||
| 05 | 04:52 | Calm | 10.00 | Fair | CLR | 75.9 | 73 | 91% | 76 | 29.92 | 1012.2 | ||||||
| 05 | 03:52 | Calm | 8.00 | Fair | CLR | 73.9 | 73 | 97% | 29.92 | 1012.5 | |||||||
| 05 | 02:52 | NE 6 | 9.00 | Mostly Cloudy | BKN060 | 77 | 73.9 | 90% | 78 | 29.93 | 1012.7 | ||||||
| 05 | 01:52 | SE 3 | 8.00 | Fair | CLR | 75.9 | 73.9 | 94% | 75 | 29.93 | 1012.6 | ||||||
| 05 | 00:52 | Calm | 8.00 | Fair | CLR | 75.9 | 73.9 | 88 | 75.9 | 94% | 75 | 29.93 | 1012.8 | ||||
| 04 | 23:52 | Calm | 9.00 | Fair | CLR | 77 | 73.9 | 90% | 78 | 29.92 | 1012.4 | ||||||
| 04 | 22:52 | NE 6 | 10.00 | Fair | CLR | 81 | 73.9 | 79% | 86 | 29.92 | 1012.1 | ||||||
| 04 | 21:52 | S 3 | 10.00 | Fair | CLR | 79 | 75 | 88% | 83 | 29.9 | 1011.7 | ||||||
| 04 | 20:52 | S 3 | 10.00 | Fair | CLR | 80.1 | 75 | 85% | 85 | 29.89 | 1011.5 | ||||||
| 04 | 19:52 | Calm | 9.00 | Fair | CLR | 84.9 | 75.9 | 75% | 94 | 29.9 | 1011.8 | ||||||
| 04 | 18:52 | Calm | 10.00 | Mostly Cloudy | BKN055 | 88 | 75.9 | 93 | 88 | 68% | 99 | 29.91 | 1012.0 | ||||
| 04 | 17:52 | SW 5 | 10.00 | Fair | CLR | 91 | 73.9 | 57% | 101 | 29.9 | 1011.6 | ||||||
| 04 | 16:52 | SW 7 | 10.00 | Fair | CLR | 91 | 73.9 | 57% | 101 | 29.89 | 1011.3 | ||||||
| 04 | 15:52 | SW 15 G 24 | 10.00 | Fair | CLR | 91.9 | 73 | 54% | 101 | 29.88 | 1010.9 | ||||||
| 04 | 14:52 | S 10 | 10.00 | Fair | CLR | 91.9 | 73 | 54% | 101 | 29.89 | 1011.3 | ||||||
| 04 | 13:52 | S 15 | 10.00 | Fair | CLR | 91.9 | 73.9 | 56% | 102 | 29.91 | 1012.0 | ||||||
| 04 | 12:52 | SW 10 | 10.00 | A Few Clouds | FEW120 | 90 | 73 | 91.9 | 73 | 58% | 98 | 29.93 | 1012.6 | ||||
| 04 | 11:52 | SW 10 | 10.00 | Mostly Cloudy | BKN120 | 89.1 | 72 | 57% | 96 | 29.93 | 1012.7 | ||||||
| 04 | 10:52 | SW 13 G 21 | 10.00 | Fair | CLR | 89.1 | 72 | 57% | 96 | 29.93 | 1012.5 | ||||||
| 04 | 09:52 | SW 7 | 10.00 | Fair | CLR | 86 | 73 | 65% | 93 | 29.93 | 1012.7 | ||||||
| 04 | 08:52 | SW 7 | 10.00 | Fair | CLR | 82 | 72 | 72% | 87 | 29.92 | 1012.4 | ||||||
| 04 | 07:52 | S 5 | 10.00 | Fair | CLR | 75.9 | 71.1 | 85% | 76 | 29.91 | 1012.1 | ||||||
| 04 | 06:52 | S 6 | 10.00 | Fair | CLR | 73 | 70 | 77 | 72 | 90% | 29.9 | 1011.6 | |||||
| 04 | 05:52 | S 6 | 10.00 | Fair | CLR | 73 | 70 | 90% | 29.89 | 1011.4 | |||||||
| 04 | 04:52 | S 5 | 10.00 | Fair | CLR | 73.9 | 70 | 88% | 29.89 | 1011.2 | |||||||
| 04 | 03:52 | S 3 | 10.00 | A Few Clouds | FEW120 | 75 | 71.1 | 88% | 75 | 29.87 | 1010.7 | ||||||
| 04 | 02:52 | S 6 | 10.00 | NULL | NULL | 73.9 | 71.1 | 91% | 29.87 | 1010.5 | |||||||
| 04 | 01:52 | S 7 | 10.00 | NULL | NULL | 75.9 | 72 | 88% | 76 | 29.88 | 1011.0 | ||||||
| 04 | 00:52 | S 6 | 10.00 | NULL | NULL | 75.9 | 73 | 88 | 75.9 | 91% | 76 | 29.89 | 1011.4 | ||||
| 03 | 23:52 | S 5 | 10.00 | NULL | NULL | 78.1 | 73.9 | 87% | 81 | 29.89 | 1011.3 | ||||||
| 03 | 22:52 | S 5 | 10.00 | Fair | CLR | 79 | 73.9 | 85% | 83 | 29.89 | 1011.3 | ||||||
| 03 | 21:52 | S 6 | 10.00 | Fair | CLR | 81 | 75 | 82% | 87 | 29.88 | 1010.9 | ||||||
| 03 | 20:52 | S 5 | 10.00 | Fair | CLR | 82 | 75 | 79% | 89 | 29.87 | 1010.6 | ||||||
| 03 | 19:52 | S 7 | 10.00 | Fair | CLR | 84.9 | 75.9 | 75% | 94 | 29.85 | 1009.8 | ||||||
| 03 | 18:52 | S 7 | 10.00 | Fair | CLR | 87.1 | 75.9 | 93.9 | 87.1 | 70% | 98 | 29.84 | 1009.6 | ||||
| 03 | 17:52 | S 10 | 10.00 | Fair | CLR | 87.1 | 75.9 | 70% | 98 | 29.83 | 1009.3 | ||||||
| 03 | 16:52 | S 8 | 10.00 | Fair | CLR | 89.1 | 75 | 63% | 99 | 29.86 | 1010.3 | ||||||
| 03 | 15:52 | SW 8 | 10.00 | Fair | CLR | 93 | 72 | 50% | 101 | 29.88 | 1011.0 | ||||||
| 03 | 14:52 | S 7 | 10.00 | Fair | CLR | 93 | 73.9 | 54% | 103 | 29.9 | 1011.5 | ||||||
| 03 | 13:52 | S 9 | 9.00 | Fair | CLR | 91.9 | 73 | 54% | 101 | 29.91 | 1011.8 | ||||||
| 03 | 12:52 | SW 7 | 10.00 | Fair | CLR | 90 | 72 | 90 | 73.9 | 56% | 97 | 29.91 | 1012.0 | ||||
| 03 | 11:52 | SW 3 | 10.00 | Fair | CLR | 89.1 | 73 | 59% | 97 | 29.92 | 1012.5 | ||||||
| 03 | 10:52 | Vrbl 6 | 10.00 | Fair | CLR | 86 | 73 | 65% | 93 | 29.94 | 1012.9 | ||||||
| 03 | 09:52 | NE 6 | 10.00 | Fair | CLR | 84 | 71.1 | 65% | 89 | 29.93 | 1012.8 | ||||||
| 03 | 08:52 | NE 5 | 10.00 | Fair | CLR | 80.1 | 71.1 | 74% | 84 | 29.93 | 1012.9 | ||||||
| 03 | 07:52 | N 12 G 24 | 9.00 | Fair | CLR | 77 | 70 | 79% | 79 | 29.94 | 1013.1 | ||||||
| 03 | 06:52 | S 6 | 10.00 | Fair | CLR | 73.9 | 70 | 78.1 | 73 | 88% | 29.9 | 1011.8 | |||||
| 03 | 05:52 | S 5 | 10.00 | Fair | CLR | 73 | 70 | 90% | 29.89 | 1011.3 | |||||||
| 03 | 04:52 | S 6 | 10.00 | Fair | CLR | 73 | 70 | 90% | 29.89 | 1011.3 | |||||||
| 03 | 03:52 | S 6 | 10.00 | Fair | CLR | 73.9 | 70 | 88% | 29.89 | 1011.5 | |||||||
| 03 | 02:52 | S 7 | 10.00 | Fair | CLR | 75 | 70 | 84% | 75 | 29.89 | 1011.1 | ||||||
| 03 | 01:52 | S 6 | 10.00 | Fair | CLR | 77 | 71.1 | 82% | 79 | 29.9 | 1011.5 | ||||||
| 03 | 00:52 | S 6 | 10.00 | NULL | NULL | 78.1 | 71.1 | 84.9 | 77 | 79% | 80 | 29.9 | 1011.5 | ||||
| Date | Time (cdt) | Wind (mph) | Vis. (mi.) | Weather | Sky Cond. | Air | Dwpt | Max. | Min. | Relative Humidity | Wind Chill (°F) | Heat Index (°F) | altimeter (in) | sea level (mb) | 1 hr | 3 hr | 6 hr |
| 6 hour | |||||||||||||||||
| Temperature (ºF) | Pressure | Precipitation (in) | |||||||||||||||